Time,TemperatureF,DewpointF,PressureIn,WindDirection,WindDirectionDegrees,WindSpeedMPH,WindSpeedGustMPH,Humidity,HourlyPrecipIn,Conditions,Clouds,dailyrainin,SoftwareType,DateUTC
2013-04-09 00:02:00,27.0,25.0,29.57,NNE,33,0.0,0.0,91,0.00,,,0.01,,2013-04-09 06:02:00,
2013-04-09 00:12:00,27.0,24.0,29.56,ENE,77,0.0,0.0,90,0.00,,,0.01,,2013-04-09 06:12:00,
2013-04-09 00:22:00,27.0,24.0,29.56,ENE,77,0.0,0.0,90,0.00,,,0.01,,2013-04-09 06:22:00,
2013-04-09 00:32:00,26.0,23.0,29.56,ENE,62,0.0,0.0,90,0.00,,,0.01,,2013-04-09 06:32:00,
2013-04-09 00:42:00,26.0,23.0,29.56,ENE,62,0.0,0.0,90,0.00,,,0.01,,2013-04-09 06:42:00,
2013-04-09 00:52:00,26.0,23.0,29.60,East,95,0.0,0.0,89,0.00,,,0.01,,2013-04-09 06:52:00,
2013-04-09 01:02:00,25.0,22.0,29.60,NE,39,0.0,0.0,89,0.00,,,0.01,,2013-04-09 07:02:00,
2013-04-09 01:12:00,25.0,22.0,29.60,NE,39,0.0,0.0,89,0.00,,,0.01,,2013-04-09 07:12:00,
2013-04-09 01:22:00,25.0,22.0,29.60,ENE,75,0.0,0.0,89,0.00,,,0.01,,2013-04-09 07:22:00,
2013-04-09 01:32:00,25.0,22.0,29.60,NE,56,0.0,0.0,89,0.00,,,0.01,,2013-04-09 07:32:00,
2013-04-09 01:42:00,25.0,22.0,29.60,NE,56,0.0,0.0,89,0.00,,,0.01,,2013-04-09 07:42:00,
2013-04-09 01:52:00,24.0,21.0,29.62,ESE,105,0.0,0.0,89,0.00,,,0.01,,2013-04-09 07:52:00,
2013-04-09 02:03:00,24.0,21.0,29.62,SE,125,0.0,0.0,89,0.00,,,0.01,,2013-04-09 08:03:00,
2013-04-09 02:12:00,24.0,21.0,29.62,SE,125,0.0,0.0,89,0.00,,,0.01,,2013-04-09 08:12:00,
2013-04-09 02:22:00,24.0,21.0,29.63,ESE,114,0.0,0.0,88,0.00,,,0.01,,2013-04-09 08:22:00,
2013-04-09 02:32:00,23.0,20.0,29.63,ESE,121,0.0,0.0,87,0.00,,,0.01,,2013-04-09 08:32:00,
2013-04-09 02:42:00,23.0,20.0,29.63,ESE,121,0.0,0.0,87,0.00,,,0.01,,2013-04-09 08:42:00,
2013-04-09 02:52:00,21.0,18.0,29.72,ESE,117,0.0,0.0,87,0.00,,,0.01,,2013-04-09 08:52:00,
2013-04-09 03:02:00,20.0,16.0,29.72,ESE,121,0.0,0.0,86,0.00,,,0.01,,2013-04-09 09:02:00,
2013-04-09 03:12:00,20.0,16.0,29.71,East,79,0.0,0.0,86,0.00,,,0.01,,2013-04-09 09:12:00,
2013-04-09 03:22:00,20.0,16.0,29.71,East,79,0.0,0.0,86,0.00,,,0.01,,2013-04-09 09:22:00,
2013-04-09 03:33:00,19.0,16.0,29.72,NE,55,0.0,0.0,86,0.00,,,0.01,,2013-04-09 09:33:00,
2013-04-09 03:43:00,19.0,16.0,29.72,NE,55,0.0,0.0,86,0.00,,,0.01,,2013-04-09 09:43:00,
2013-04-09 03:52:00,19.0,15.0,29.73,ENE,60,0.0,0.0,85,0.00,,,0.01,,2013-04-09 09:52:00,
2013-04-09 04:03:00,18.0,15.0,29.74,ENE,63,0.0,0.0,86,0.00,,,0.01,,2013-04-09 10:03:00,
2013-04-09 04:12:00,18.0,15.0,29.74,ENE,63,0.0,0.0,86,0.00,,,0.01,,2013-04-09 10:12:00,
2013-04-09 04:23:00,18.0,14.0,29.76,ENE,64,0.0,0.0,85,0.00,,,0.01,,2013-04-09 10:23:00,
2013-04-09 04:33:00,18.0,14.0,29.76,East,81,0.0,0.0,85,0.00,,,0.01,,2013-04-09 10:33:00,
2013-04-09 04:42:00,18.0,14.0,29.76,East,81,0.0,0.0,85,0.00,,,0.01,,2013-04-09 10:42:00,
2013-04-09 04:53:00,18.0,14.0,29.80,East,96,0.0,0.0,85,0.00,,,0.01,,2013-04-09 10:53:00,
2013-04-09 05:02:00,17.0,13.0,29.81,SE,124,0.0,0.0,84,0.00,,,0.01,,2013-04-09 11:02:00,
2013-04-09 05:12:00,17.0,13.0,29.81,SE,124,0.0,0.0,84,0.00,,,0.01,,2013-04-09 11:12:00,
2013-04-09 05:22:00,16.0,12.0,29.84,SE,128,0.0,0.0,84,0.00,,,0.01,,2013-04-09 11:22:00,
2013-04-09 05:32:00,16.0,12.0,29.84,ESE,121,0.0,0.0,84,0.00,,,0.01,,2013-04-09 11:32:00,
2013-04-09 05:42:00,16.0,12.0,29.84,ESE,121,0.0,0.0,84,0.00,,,0.01,,2013-04-09 11:42:00,
2013-04-09 05:52:00,15.0,11.0,29.91,ENE,57,0.0,0.0,83,0.00,,,0.01,,2013-04-09 11:52:00,
2013-04-09 06:02:00,15.0,11.0,29.91,East,93,0.0,0.0,83,0.00,,,0.01,,2013-04-09 12:02:00,
2013-04-09 06:12:00,15.0,11.0,29.91,East,93,0.0,0.0,83,0.00,,,0.01,,2013-04-09 12:12:00,
2013-04-09 06:22:00,14.0,10.0,29.95,East,86,0.0,0.0,83,0.00,,,0.01,,2013-04-09 12:22:00,
2013-04-09 06:32:00,14.0,10.0,29.95,ENE,73,0.0,0.0,82,0.00,,,0.01,,2013-04-09 12:32:00,
2013-04-09 06:42:00,14.0,10.0,29.95,ENE,73,0.0,0.0,82,0.00,,,0.01,,2013-04-09 12:42:00,
2013-04-09 06:53:00,14.0,10.0,30.00,ESE,105,0.0,0.0,82,0.00,,,0.01,,2013-04-09 12:53:00,
2013-04-09 07:02:00,14.0,10.0,30.00,NNE,12,0.0,0.0,82,0.00,,,0.01,,2013-04-09 13:02:00,
2013-04-09 07:12:00,14.0,10.0,30.00,NNE,12,0.0,0.0,82,0.00,,,0.01,,2013-04-09 13:12:00,
2013-04-09 07:22:00,14.0,10.0,30.01,East,100,0.0,0.0,82,0.00,,,0.01,,2013-04-09 13:22:00,
2013-04-09 07:32:00,14.0,9.0,30.01,East,84,0.0,0.0,81,0.00,,,0.01,,2013-04-09 13:32:00,
2013-04-09 07:42:00,14.0,9.0,30.01,East,84,0.0,0.0,81,0.00,,,0.01,,2013-04-09 13:42:00,
2013-04-09 07:53:00,14.0,9.0,30.03,SE,128,0.0,0.0,80,0.00,,,0.01,,2013-04-09 13:53:00,
2013-04-09 08:03:00,14.0,9.0,30.03,SE,128,0.0,0.0,80,0.00,,,0.01,,2013-04-09 14:03:00,
2013-04-09 08:12:00,14.0,9.0,30.03,SE,128,0.0,0.0,80,0.00,,,0.01,,2013-04-09 14:12:00,
2013-04-09 08:22:00,14.0,9.0,30.07,East,98,0.0,0.0,80,0.00,,,0.01,,2013-04-09 14:22:00,
2013-04-09 08:32:00,14.0,9.0,30.07,SE,128,0.0,0.0,80,0.00,,,0.01,,2013-04-09 14:32:00,
2013-04-09 08:42:00,14.0,9.0,30.07,SE,128,0.0,0.0,80,0.00,,,0.01,,2013-04-09 14:42:00,
2013-04-09 08:52:00,13.0,8.0,30.07,ENE,57,0.0,0.0,80,0.00,,,0.01,,2013-04-09 14:52:00,
2013-04-09 09:02:00,13.0,8.0,30.07,East,83,0.0,0.0,80,0.00,,,0.01,,2013-04-09 15:02:00,
2013-04-09 09:12:00,13.0,8.0,30.07,East,83,0.0,0.0,80,0.00,,,0.01,,2013-04-09 15:12:00,
2013-04-09 09:22:00,13.0,8.0,30.10,ENE,78,0.0,0.0,80,0.00,,,0.01,,2013-04-09 15:22:00,
2013-04-09 09:33:00,13.0,8.0,30.10,East,93,0.0,0.0,80,0.00,,,0.01,,2013-04-09 15:33:00,
2013-04-09 09:43:00,13.0,8.0,30.10,East,93,0.0,0.0,80,0.00,,,0.01,,2013-04-09 15:43:00,
2013-04-09 09:53:00,14.0,9.0,30.09,East,83,0.0,0.0,79,0.00,,,0.01,,2013-04-09 15:53:00,
2013-04-09 10:03:00,14.0,9.0,30.09,East,86,0.0,0.0,79,0.00,,,0.01,,2013-04-09 16:03:00,
2013-04-09 10:13:00,14.0,9.0,30.09,East,86,0.0,0.0,79,0.00,,,0.01,,2013-04-09 16:13:00,
2013-04-09 10:23:00,14.0,9.0,30.11,SE,124,0.0,0.0,79,0.00,,,0.01,,2013-04-09 16:23:00,
2013-04-09 10:33:00,14.0,9.0,30.11,ESE,120,0.0,0.0,80,0.00,,,0.01,,2013-04-09 16:33:00,
2013-04-09 10:42:00,14.0,9.0,30.11,ESE,120,0.0,0.0,80,0.00,,,0.01,,2013-04-09 16:42:00,
2013-04-09 10:53:00,15.0,10.0,30.11,East,90,0.0,0.0,79,0.00,,,0.01,,2013-04-09 16:53:00,
2013-04-09 11:02:00,15.0,9.0,30.11,East,85,0.0,0.0,78,0.00,,,0.01,,2013-04-09 17:02:00,
2013-04-09 11:12:00,15.0,9.0,30.11,East,85,0.0,0.0,78,0.00,,,0.01,,2013-04-09 17:12:00,
2013-04-09 11:23:00,14.0,8.0,30.11,East,81,0.0,0.0,78,0.00,,,0.01,,2013-04-09 17:23:00,
2013-04-09 11:32:00,14.0,8.0,30.11,East,91,0.0,0.0,78,0.00,,,0.01,,2013-04-09 17:32:00,
2013-04-09 11:42:00,14.0,8.0,30.11,East,91,0.0,0.0,78,0.00,,,0.01,,2013-04-09 17:42:00,
2013-04-09 11:54:00,13.0,8.0,30.13,ENE,72,0.0,0.0,79,0.00,,,0.01,,2013-04-09 17:54:00,
2013-04-09 12:02:00,12.0,7.0,30.13,East,81,0.0,0.0,79,0.00,,,0.01,,2013-04-09 18:02:00,
2013-04-09 12:12:00,12.0,7.0,30.13,East,81,0.0,0.0,79,0.00,,,0.01,,2013-04-09 18:12:00,
2013-04-09 12:22:00,13.0,7.0,30.13,East,84,0.0,0.0,78,0.00,,,0.01,,2013-04-09 18:22:00,
2013-04-09 12:32:00,13.0,7.0,30.13,ESE,105,0.0,0.0,78,0.00,,,0.01,,2013-04-09 18:32:00,
2013-04-09 12:43:00,13.0,7.0,30.13,ESE,105,0.0,0.0,78,0.00,,,0.01,,2013-04-09 18:43:00,
2013-04-09 12:53:00,14.0,8.0,30.14,East,97,0.0,0.0,78,0.00,,,0.01,,2013-04-09 18:53:00,
2013-04-09 13:02:00,14.0,8.0,30.14,East,97,0.0,0.0,78,0.00,,,0.01,,2013-04-09 19:02:00,
2013-04-09 13:12:00,14.0,8.0,30.14,East,97,0.0,0.0,78,0.00,,,0.01,,2013-04-09 19:12:00,
2013-04-09 13:22:00,14.0,8.0,30.14,East,97,0.0,0.0,78,0.00,,,0.01,,2013-04-09 19:22:00,
2013-04-09 13:32:00,16.0,10.0,30.11,SE,124,0.0,0.0,76,0.00,,,0.01,,2013-04-09 19:32:00,
2013-04-09 13:42:00,16.0,10.0,30.11,SE,124,0.0,0.0,76,0.00,,,0.01,,2013-04-09 19:42:00,
2013-04-09 13:52:00,16.0,9.0,30.11,East,81,4.0,12.0,75,0.01,,,0.02,,2013-04-09 19:52:00,
2013-04-09 14:02:00,15.0,9.0,30.11,ENE,70,3.0,10.0,75,0.01,,,0.02,,2013-04-09 20:02:00,
2013-04-09 14:12:00,15.0,9.0,30.13,East,93,7.0,12.0,76,0.01,,,0.02,,2013-04-09 20:12:00,
2013-04-09 14:22:00,15.0,9.0,30.13,East,93,7.0,12.0,76,0.01,,,0.02,,2013-04-09 20:22:00,
2013-04-09 14:33:00,16.0,9.0,30.13,East,93,6.0,12.0,74,0.01,,,0.02,,2013-04-09 20:33:00,
2013-04-09 14:42:00,16.0,9.0,30.13,East,93,6.0,12.0,74,0.01,,,0.02,,2013-04-09 20:42:00,
2013-04-09 14:52:00,17.0,10.0,30.14,East,92,5.0,12.0,73,0.00,,,0.02,,2013-04-09 20:52:00,
2013-04-09 15:02:00,17.0,10.0,30.14,East,86,7.0,14.0,73,0.00,,,0.02,,2013-04-09 21:02:00,
2013-04-09 15:13:00,17.0,10.0,30.14,East,86,7.0,14.0,73,0.00,,,0.02,,2013-04-09 21:13:00,
2013-04-09 15:22:00,17.0,10.0,30.14,East,86,7.0,14.0,73,0.00,,,0.02,,2013-04-09 21:22:00,
2013-04-09 15:33:00,15.0,8.0,30.14,East,83,6.0,13.0,72,0.00,,,0.02,,2013-04-09 21:33:00,
2013-04-09 15:42:00,15.0,8.0,30.14,East,83,6.0,13.0,72,0.00,,,0.02,,2013-04-09 21:42:00,
2013-04-09 15:53:00,14.0,8.0,30.18,East,100,8.0,14.0,75,0.00,,,0.02,,2013-04-09 21:53:00,
2013-04-09 16:03:00,14.0,7.0,30.18,East,98,6.0,14.0,74,0.00,,,0.02,,2013-04-09 22:03:00,
2013-04-09 16:12:00,14.0,6.0,30.19,East,81,8.0,12.0,71,0.00,,,0.02,,2013-04-09 22:12:00,
2013-04-09 16:23:00,14.0,6.0,30.19,East,81,8.0,12.0,71,0.00,,,0.02,,2013-04-09 22:23:00,
2013-04-09 16:33:00,14.0,6.0,30.19,SE,125,6.0,14.0,71,0.00,,,0.02,,2013-04-09 22:33:00,
2013-04-09 16:42:00,14.0,6.0,30.19,SE,125,6.0,14.0,71,0.00,,,0.02,,2013-04-09 22:42:00,
2013-04-09 16:53:00,14.0,7.0,30.22,ENE,78,7.0,13.0,73,0.00,,,0.02,,2013-04-09 22:53:00,
2013-04-09 17:03:00,14.0,7.0,30.22,East,84,8.0,13.0,73,0.00,,,0.02,,2013-04-09 23:03:00,
2013-04-09 17:12:00,13.0,6.0,30.23,ENE,67,7.0,12.0,74,0.00,,,0.02,,2013-04-09 23:12:00,
2013-04-09 17:22:00,13.0,6.0,30.23,ENE,67,7.0,12.0,74,0.00,,,0.02,,2013-04-09 23:22:00,
2013-04-09 17:32:00,14.0,8.0,30.23,East,94,2.0,8.0,75,0.00,,,0.02,,2013-04-09 23:32:00,
2013-04-09 17:42:00,14.0,8.0,30.23,East,94,2.0,8.0,75,0.00,,,0.02,,2013-04-09 23:42:00,
2013-04-09 17:53:00,13.0,6.0,30.24,ENE,77,3.0,10.0,73,0.00,,,0.02,,2013-04-09 23:53:00,
2013-04-09 18:03:00,13.0,6.0,30.24,ENE,77,3.0,10.0,73,0.00,,,0.02,,2013-04-10 00:03:00,
2013-04-09 18:12:00,13.0,6.0,30.24,ENE,77,3.0,10.0,73,0.00,,,0.02,,2013-04-10 00:12:00,
2013-04-09 18:22:00,12.0,5.0,30.29,ENE,70,10.0,16.0,73,0.00,,,0.02,,2013-04-10 00:22:00,
2013-04-09 18:32:00,12.0,5.0,30.29,East,90,8.0,14.0,73,0.00,,,0.01,,2013-04-10 00:32:00,
2013-04-09 18:42:00,12.0,5.0,30.29,East,90,8.0,14.0,73,0.00,,,0.01,,2013-04-10 00:42:00,
2013-04-09 18:52:00,12.0,5.0,30.30,ENE,57,6.0,14.0,74,0.00,,,0.01,,2013-04-10 00:52:00,
2013-04-09 19:02:00,11.0,5.0,30.31,ENE,73,5.0,10.0,76,0.00,,,0.01,,2013-04-10 01:02:00,
2013-04-09 19:12:00,11.0,5.0,30.34,ESE,107,6.0,12.0,77,0.00,,,0.01,,2013-04-10 01:12:00,
2013-04-09 19:23:00,11.0,5.0,30.34,ESE,107,6.0,12.0,77,0.00,,,0.01,,2013-04-10 01:23:00,
2013-04-09 19:32:00,10.0,4.0,30.34,East,100,3.0,10.0,77,0.00,,,0.01,,2013-04-10 01:32:00,
2013-04-09 19:42:00,10.0,4.0,30.34,East,100,3.0,10.0,77,0.00,,,0.01,,2013-04-10 01:42:00,
2013-04-09 19:52:00,10.0,4.0,30.34,ENE,75,1.0,7.0,76,0.00,,,0.01,,2013-04-10 01:52:00,
2013-04-09 20:02:00,10.0,4.0,30.34,NNE,33,2.0,6.0,76,0.00,,,0.01,,2013-04-10 02:02:00,
2013-04-09 20:12:00,10.0,4.0,30.34,NNE,33,2.0,6.0,76,0.00,,,0.01,,2013-04-10 02:12:00,
2013-04-09 20:22:00,10.0,3.0,30.35,ENE,70,1.0,7.0,73,0.00,,,0.01,,2013-04-10 02:22:00,
2013-04-09 20:32:00,10.0,3.0,30.35,East,91,2.0,7.0,73,0.00,,,0.01,,2013-04-10 02:32:00,
2013-04-09 20:42:00,10.0,3.0,30.35,East,91,2.0,7.0,73,0.00,,,0.01,,2013-04-10 02:42:00,
2013-04-09 20:52:00,9.0,3.0,30.38,SE,128,1.0,3.0,75,0.00,,,0.01,,2013-04-10 02:52:00,
2013-04-09 21:02:00,9.0,3.0,30.38,ESE,118,2.0,5.0,75,0.00,,,0.01,,2013-04-10 03:02:00,
2013-04-09 21:12:00,9.0,3.0,30.38,ESE,118,2.0,5.0,75,0.00,,,0.01,,2013-04-10 03:12:00,
2013-04-09 21:22:00,9.0,3.0,30.40,SE,128,2.0,6.0,75,0.00,,,0.01,,2013-04-10 03:22:00,
2013-04-09 21:33:00,9.0,3.0,30.40,ESE,122,1.0,5.0,75,0.00,,,0.01,,2013-04-10 03:33:00,
2013-04-09 21:43:00,9.0,3.0,30.40,ESE,122,1.0,5.0,75,0.00,,,0.01,,2013-04-10 03:43:00,
2013-04-09 21:53:00,8.0,1.0,30.40,SE,128,1.0,5.0,74,0.00,,,0.01,,2013-04-10 03:53:00,
2013-04-09 22:03:00,8.0,2.0,30.40,SE,128,1.0,5.0,75,0.00,,,0.01,,2013-04-10 04:03:00,
2013-04-09 22:13:00,8.0,2.0,30.40,SE,128,1.0,5.0,75,0.00,,,0.01,,2013-04-10 04:13:00,
2013-04-09 22:23:00,8.0,1.0,30.40,SE,124,1.0,3.0,74,0.00,,,0.01,,2013-04-10 04:23:00,
2013-04-09 22:33:00,8.0,2.0,30.40,ESE,122,1.0,2.0,75,0.00,,,0.01,,2013-04-10 04:33:00,
2013-04-09 22:42:00,8.0,2.0,30.40,ESE,122,1.0,2.0,75,0.00,,,0.01,,2013-04-10 04:42:00,
2013-04-09 22:52:00,8.0,2.0,30.38,East,83,2.0,7.0,76,0.00,,,0.01,,2013-04-10 04:52:00,
2013-04-09 23:02:00,8.0,2.0,30.38,East,81,2.0,6.0,76,0.00,,,0.01,,2013-04-10 05:02:00,
2013-04-09 23:13:00,7.0,1.0,30.38,East,91,2.0,6.0,76,0.00,,,0.01,,2013-04-10 05:13:00,
2013-04-09 23:23:00,7.0,1.0,30.38,East,91,2.0,6.0,76,0.00,,,0.01,,2013-04-10 05:23:00,
2013-04-09 23:33:00,7.0,1.0,30.38,East,101,2.0,5.0,76,0.00,,,0.01,,2013-04-10 05:33:00,
2013-04-09 23:42:00,7.0,1.0,30.38,East,101,2.0,5.0,76,0.00,,,0.01,,2013-04-10 05:42:00,
2013-04-09 23:53:00,7.0,1.0,30.39,East,101,1.0,2.0,76,0.00,,,0.01,,2013-04-10 05:53:00,